RH
48 34 31 33 31 22 18 15 16 21 24 20 21 21 19 19 22 47 58 51 49 56 57 62 85 84 85 85 85 86 86 86 84 83 80 79 78 75 72 69 71 75 76 76 75 75 75 74 77
32 36 35 28 33 19 14 18 23 25 24 22 21 21 22 33 40 45 56 47 51 55 54 55 85 85 85 86 86 87 86 84 83 83 81 80 78 78 75 71 70 76 77 78 78 76 76 76 72
40 38 33 28 17 17 20 21 28 26 22 21 20 19 30 41 31 36 41 51 58 58 64 53 82 82 85 85 86 85 85 85 84 82 83 80 78 77 74 72 73 79 79 79 80 77 78 78 74
38 37 29 28 18 22 22 24 27 26 23 20 20 22 35 33 32 29 35 49 60 62 66 74 82 82 84 85 85 83 83 82 82 81 80 78 76 73 75 79 81 83 82 79 79 78 76 76 74
37 30 27 23 18 22 24 26 26 22 22 20 20 22 30 27 24 25 28 39 59 63 64 77 82 82 84 83 83 85 84 83 83 81 77 75 74 74 77 80 82 85 82 79 76 78 75 73 73
37 27 25 23 18 21 22 26 24 21 20 18 20 21 26 26 25 28 27 31 52 65 68 69 78 84 84 84 84 84 84 82 82 82 80 78 78 78 79 80 82 83 80 78 76 77 77 76 77
30 24 19 17 17 20 22 22 18 18 18 18 19 20 26 31 23 28 26 27 33 58 65 67 70 67 87 85 86 86 85 85 85 85 83 82 85 84 80 82 82 83 82 81 80 80 78 78 78
26 20 20 17 18 23 28 25 24 22 17 18 17 15 16 23 18 23 25 29 28 34 55 66 70 75 62 59 90 90 90 90 87 88 86 87 91 88 87 87 85 85 86 84 82 82 82 82 82
28 24 20 21 20 27 28 25 25 24 22 17 16 16 16 14 15 21 28 31 30 30 32 41 68 70 75 80 72 89 91 88 86 83 89 87 62 60 65 72 82 85 87 86 84 84 84 86 86
25 25 21 26 26 27 27 28 23 23 18 17 15 13 12 13 16 24 28 30 30 31 29 28 46 74 74 67 72 63 54 58 56 58 59 60 52 48 49 65 84 87 87 88 85 85 87 88 56
29 28 27 33 32 32 27 24 21 24 24 16 15 14 13 15 18 22 24 28 28 27 30 29 31 52 75 78 71 66 58 58 56 56 58 59 55 60 52 51 60 64 84 65 74 72 65 58 46
32 32 29 34 37 33 28 23 21 18 18 14 15 16 16 18 19 22 23 25 26 31 30 31 29 35 65 70 80 71 59 57 60 72 74 79 74 78 78 48 51 64 57 60 65 60 59 58 48
27 34 35 32 34 29 25 26 22 20 16 14 15 17 18 20 19 19 20 21 23 27 33 36 34 32 45 76 77 79 67 53 50 51 55 67 78 85 80 87 85 74 68 64 75 61 55 58 54
32 34 28 28 28 27 29 23 25 16 17 21 23 23 22 23 23 24 23 22 23 23 25 32 33 34 39 70 76 84 73 65 53 47 49 46 51 56 61 64 64 62 70 63 57 58 60 52 60
33 30 29 29 29 31 33 34 32 19 18 25 26 25 26 26 26 25 27 29 26 25 26 29 33 36 38 50 77 80 85 76 65 54 48 49 46 49 50 56 59 55 53 55 70 60 60 65 72
32 32 33 29 34 38 41 27 21 19 26 30 28 29 30 31 29 30 31 31 29 29 28 27 26 31 33 39 65 78 82 82 68 59 53 48 48 48 48 50 54 53 55 53 57 66 73 77 78
31 60 33 33 35 38 42 35 24 24 30 31 32 34 39 42 41 41 42 44 45 42 38 33 31 30 32 34 45 73 75 79 68 60 54 50 47 46 45 46 48 48 55 60 70 75 75 82 83
47 47 40 37 36 39 45 42 31 27 31 35 36 41 45 45 45 43 46 49 48 47 47 47 37 32 28 36 40 48 57 70 60 54 52 49 46 45 47 48 49 48 53 57 70 73 76 81 80
43 41 46 39 38 52 45 44 36 30 32 41 40 41 46 54 55 59 56 57 60 58 59 51 45 37 31 36 40 50 57 58 58 58 56 53 52 51 53 53 52 52 54 55 56 64 73 77 83
48 47 52 43 43 49 46 48 37 34 40 45 47 47 55 63 59 61 70 71 72 75 77 75 59 45 34 38 55 60 65 68 65 59 58 58 58 60 58 61 62 60 61 59 63 66 74 73 74
46 44 46 67 52 44 53 45 47 41 45 46 42 46 51 62 72 73 76 80 83 86 87 87 86 84 83 85 82 84 80 85 84 77 73 67 62 66 74 72 72 67 68 71 71 73 74 82 80
58 42 50 60 67 74 47 74 45 40 42 46 43 50 58 66 71 74 81 84 87 90 87 86 88 90 88 89 88 90 84 79 66 70 71 70 76 77 83 88 83 76 78 80 78 76 80 82 88
55 48 52 57 70 79 58 86 45 41 40 43 52 60 66 72 79 82 83 84 83 87 90 90 86 85 88 88 90 95 95 94 94 86 83 80 80 80 83 88 90 91 82 80 82 84 86 87 89
46 55 62 62 70 86 56 59 48 49 54 63 66 71 78 79 78 78 79 80 84 86 83 78 75 78 80 85 88 93 94 92 93 91 90 87 85 88 85 86 91 92 93 86 84 86 87 90 92
60 80 95 91 93 81 49 59 48 46 81 82 84 84 83 83 80 84 87 87 87 90 85 75 71 72 70 74 78 79 85 89 90 92 91 89 91 92 92 91 93 93 93 93 94 91 89 89 92
78 85 92 85 75 72 56 80 58 69 78 78 84 88 80 84 84 87 88 90 89 90 90 84 79 77 67 71 77 80 74 84 85 92 94 95 90 86 84 89 91 89 90 92 93 96 96 99 99
85 93 70 98 61 84 63 60 66 75 78 75 84 88 94 88 86 87 84 87 89 89 90 93 81 75 77 65 63 71 77 73 76 75 67 66 64 57 63 74 85 88 88 91 92 94 95 94 96
56 62 90 99 91 76 65 63 76 90 98 95 93 94 95 85 86 86 84 83 77 82 76 77 64 47 50 58 43 42 46 47 46 41 36 35 37 39 41 45 52 63 74 84 90 90 88 90 94
68 66 64 58 65 81 57 58 63 78 94 95 91 92 90 88 87 84 80 60 52 59 50 49 45 41 37 33 35 33 32 32 32 31 30 29 29 30 30 32 33 37 40 43 54 66 74 78 85
47 49 42 59 61 53 54 51 57 69 73 86 83 86 87 83 72 63 56 49 46 41 40 42 45 36 38 31 30 32 30 29 29 28 28 29 29 27 29 32 33 32 37 41 41 41 43 45 50
Wind_Speed
10 7 4 5 6 6 10 5 4 6 5 5 5 5 6 7 8 5 8 11 13 9 3 11 9 10 9 8 8 7 8 10 11 12 12 11 11 11 8 8 9 8 10 9 11 9 10 10 11
3 4 5 3 7 9 6 9 6 6 6 2 2 4 4 10 12 5 6 15 14 10 6 7 13 10 10 9 9 8 8 7 7 9 9 10 8 9 8 8 8 6 7 9 12 11 11 9 8
7 5 4 4 6 10 3 3 10 5 2 2 3 4 4 6 11 7 13 13 14 11 13 2 12 10 10 9 8 9 8 7 5 5 7 8 10 10 8 8 8 7 5 7 9 9 10 9 7
5 4 4 7 9 9 5 7 6 5 3 0 5 6 6 7 4 11 12 9 10 11 9 3 8 7 9 9 8 9 9 8 6 5 5 6 7 8 10 10 7 5 6 7 10 11 10 10 9
4 4 6 6 7 5 3 8 2 3 3 1 3 3 3 6 8 12 14 12 10 10 10 12 6 6 7 9 9 8 8 8 8 7 7 5 7 8 7 6 7 7 8 9 9 10 10 11 9
4 5 6 9 6 4 3 1 1 2 3 3 3 5 4 8 10 11 12 13 11 9 9 8 3 5 6 8 10 10 9 7 7 7 8 8 8 8 8 6 7 10 12 10 10 11 11 10 10
5 4 4 1 5 6 4 2 3 2 0 1 4 6 8 5 8 10 11 12 12 9 8 8 9 6 6 6 7 7 8 9 9 10 10 10 8 8 9 8 9 12 13 11 11 11 11 11 10
4 4 4 4 7 5 3 2 1 4 1 6 2 4 5 6 11 10 10 11 10 10 8 7 9 8 7 8 9 8 9 10 9 7 9 9 8 8 9 8 10 11 13 13 12 12 12 11 9
2 4 5 4 4 7 3 1 2 3 7 5 6 8 10 13 12 11 11 9 9 8 8 10 6 9 6 6 5 8 8 7 7 8 8 7 8 11 12 11 9 13 14 14 13 13 13 11 9
5 4 4 5 5 5 2 3 5 5 6 10 11 11 9 8 12 14 13 11 11 11 10 8 8 4 8 7 4 8 9 8 9 8 9 8 10 10 9 8 12 12 13 13 14 14 13 10 9
3 3 4 3 5 4 4 6 5 6 9 8 9 12 13 14 14 14 14 12 11 11 10 10 9 8 5 7 5 4 4 4 5 6 6 7 5 5 5 5 7 8 9 9 11 11 9 13 10
4 1 2 2 3 4 6 9 8 12 16 15 14 15 15 15 14 13 14 14 14 12 12 11 10 8 7 5 5 7 7 6 5 2 2 3 3 1 5 5 5 8 7 12 9 8 12 13 14
3 4 2 0 3 6 8 11 12 19 16 13 10 12 14 13 14 13 14 14 15 14 11 10 10 10 8 6 6 6 8 7 8 8 7 4 1 2 4 4 5 4 7 8 7 9 10 12 13
2 2 1 1 3 5 8 11 4 3 3 6 10 12 12 13 13 15 15 16 16 15 14 11 10 11 10 7 9 6 7 6 5 8 8 10 6 6 6 6 7 7 5 8 7 9 8 10 12
2 3 3 1 1 2 6 12 11 9 4 12 13 13 14 16 15 14 14 16 16 14 15 15 13 11 11 11 8 7 7 6 5 7 9 10 9 8 8 7 6 7 8 11 6 8 7 8 5
3 2 4 7 1 3 4 8 7 3 8 13 13 12 12 13 13 13 14 14 15 16 16 16 13 12 11 11 8 7 7 5 7 6 6 10 10 10 8 7 6 7 7 8 9 8 8 9 8
5 3 5 5 3 1 6 9 1 8 8 11 10 9 8 8 9 10 11 11 13 14 16 15 14 13 13 12 10 9 9 7 8 9 10 11 10 11 10 8 7 9 7 7 7 8 10 8 7
6 3 3 5 4 7 11 18 16 11 10 9 7 8 9 9 11 11 14 14 14 16 14 15 13 14 13 10 9 8 8 7 9 9 9 11 9 11 9 9 9 9 8 7 8 11 10 10 8
4 1 3 5 2 8 8 14 15 12 7 6 6 6 8 11 13 14 14 14 15 14 17 15 13 14 10 8 8 8 8 7 7 7 9 9 9 10 9 8 10 10 10 11 12 11 13 11 9
3 1 3 4 1 6 12 19 18 8 3 3 6 7 10 11 13 14 14 15 15 15 14 17 16 12 11 8 5 6 6 6 5 4 5 6 9 9 10 10 9 11 9 13 13 14 10 10 10
4 4 4 2 10 14 12 12 4 5 3 3 5 6 8 9 12 12 13 14 13 13 13 12 13 12 9 8 5 2 1 2 2 3 4 6 9 9 9 13 12 13 12 10 13 14 16 11 10
1 2 1 5 8 4 8 6 7 2 3 3 4 6 9 10 9 11 12 12 12 11 11 12 11 10 10 10 5 5 2 4 3 3 4 5 10 10 10 11 12 14 12 14 13 13 13 12 12
5 2 5 6 6 7 5 3 2 3 3 1 10 7 8 8 9 10 11 11 12 11 8 7 8 9 10 9 8 7 10 7 7 7 6 8 8 10 11 12 12 12 13 15 15 14 12 10 10
4 5 5 3 2 4 4 5 5 3 5 10 7 4 5 6 7 8 10 10 10 9 10 9 8 8 9 9 11 14 12 9 9 10 8 7 7 7 10 12 11 11 12 14 12 13 13 12 11
2 3 2 4 3 2 0 4 9 2 3 3 4 5 4 5 6 7 9 10 11 11 11 10 11 12 12 13 13 12 10 11 10 9 8 9 7 7 8 10 11 10 12 13 13 12 11 12 11
3 3 3 4 3 5 3 7 0 4 2 2 3 6 2 3 4 6 7 7 9 10 11 12 12 12 13 12 14 10 12 8 8 9 5 6 5 5 8 9 9 11 12 13 13 10 10 5 4
5 2 3 3 5 4 7 7 4 4 4 4 4 3 2 4 4 5 6 7 7 8 9 9 9 9 11 11 7 7 8 9 8 9 6 3 5 4 8 7 7 9 11 11 11 10 11 11 12
2 2 1 3 3 5 4 5 4 5 5 2 2 2 1 1 3 5 5 5 5 6 6 5 8 9 7 6 8 6 7 5 4 3 6 7 7 9 8 9 9 10 8 9 9 8 9 11 8
4 3 5 3 3 4 6 3 1 4 2 3 3 3 4 3 3 4 5 4 3 4 7 6 6 6 6 6 6 7 7 7 7 7 8 9 8 9 11 10 10 11 11 11 9 9 9 9 8
6 8 6 4 2 6 4 3 3 2 2 3 4 5 7 7 8 6 4 5 4 4 4 3 2 2 3 3 3 4 5 5 5 6 7 7 7 8 9 9 9 10 9 9 10 10 9 9 10
Wind_Direction
268 234 245 207 225 233 242 151 37 143 165 77 37 276 5 9 10 27 114 15 350 343 354 173 176 178 175 167 158 153 154 167 178 168 174 164 169 159 180 187 193 205 214 181 175 147 136 131 90
261 226 226 218 248 220 212 91 194 119 62 114 171 197 204 105 34 54 360 355 343 330 310 208 170 186 189 178 168 163 167 173 169 164 171 168 177 175 177 206 210 220 176 152 146 147 131 109 127
257 259 222 220 239 246 34 139 102 102 107 204 146 309 25 43 49 9 4 349 337 339 334 214 165 186 199 198 187 178 176 176 176 169 175 181 188 181 176 208 217 222 195 183 140 124 124 119 142
181 208 235 246 220 91 53 95 97 149 132 125 339 131 106 40 31 9 354 358 350 340 352 83 156 180 205 206 199 198 188 188 194 212 215 209 199 196 199 201 209 203 195 159 135 137 138 144 161
208 242 235 232 229 82 71 86 42 154 75 98 346 108 86 79 35 15 0 356 359 346 341 332 143 172 193 202 210 212 209 204 201 205 223 230 214 227 223 203 196 163 185 163 153 154 157 157 166
199 287 229 220 170 143 126 73 282 251 84 76 253 324 90 96 26 7 4 360 357 353 345 328 175 198 204 201 204 210 215 222 223 219 227 222 221 228 236 215 207 184 184 178 177 178 176 174 179
255 220 258 46 132 165 104 303 236 329 155 190 347 276 95 180 22 356 355 355 357 357 349 337 327 222 209 230 208 200 204 211 219 223 225 223 217 227 234 221 214 202 194 185 184 186 185 187 196
281 272 198 191 184 113 91 105 15 289 122 0 310 264 254 75 348 333 342 342 347 355 351 352 327 313 254 208 195 202 199 198 209 223 237 231 226 231 234 223 207 211 200 190 189 190 191 194 199
263 249 207 114 182 95 119 237 108 352 285 279 272 284 298 316 322 323 326 322 329 334 347 341 335 312 309 308 202 192 215 225 220 224 223 234 232 223 228 216 215 202 201 193 192 197 198 190 195
227 265 55 24 51 78 85 329 347 297 282 265 263 268 273 299 310 316 313 313 313 314 324 323 328 300 296 286 260 222 218 217 220 221 229 212 232 239 235 205 182 196 199 194 195 199 198 191 209
172 311 109 99 50 3 337 295 346 295 278 275 309 311 313 310 304 299 301 302 302 301 298 302 307 303 261 287 265 268 247 235 239 263 256 266 279 297 256 234 186 205 201 208 204 203 208 213 225
166 95 355 77 68 332 315 317 283 264 265 302 306 304 302 297 295 293 295 297 297 295 286 284 283 285 272 238 265 263 242 225 224 233 355 302 236 284 311 269 233 189 197 213 208 209 210 219 220
208 155 191 319 295 294 296 275 280 279 287 295 309 297 291 294 295 293 288 288 293 289 284 277 279 271 263 226 245 259 261 225 222 210 196 183 213 233 246 273 292 277 217 236 213 215 223 220 230
97 180 229 313 310 283 287 287 306 269 41 312 304 294 292 293 298 296 289 291 294 291 286 283 268 268 260 233 235 243 270 269 251 216 216 211 205 209 211 237 256 265 272 264 221 218 233 245 218
114 261 198 235 120 324 313 270 232 261 289 303 307 302 300 296 295 293 300 294 291 286 286 285 282 271 262 244 227 226 244 266 249 233 233 234 232 234 239 251 263 263 253 261 272 260 238 243 263
217 254 246 127 251 134 296 291 132 175 299 307 309 306 309 315 313 309 302 300 295 292 289 285 279 275 263 255 232 216 218 231 242 255 247 229 237 246 250 258 255 250 264 256 243 241 243 244 248
196 224 237 169 203 261 228 296 118 308 306 304 316 339 333 329 330 336 332 325 316 302 294 287 278 273 268 260 248 214 209 214 232 232 235 243 243 247 248 250 258 261 254 256 269 265 247 242 231
166 203 250 247 139 260 267 267 276 290 289 297 320 331 336 346 340 341 348 344 327 320 304 291 277 269 260 257 253 251 234 212 229 234 239 244 243 243 247 253 257 260 257 249 240 252 253 244 234
112 181 241 276 353 301 267 283 289 289 287 267 315 326 340 348 341 357 355 343 342 339 331 314 276 262 250 248 243 230 229 227 227 227 245 251 252 260 263 262 261 258 258 257 250 242 237 234 229
166 248 296 304 300 283 291 292 282 290 192 298 328 344 347 334 333 344 345 348 344 341 341 336 313 272 249 239 236 243 235 234 219 216 238 257 260 268 270 267 265 261 259 254 248 249 245 244 230
217 277 347 322 311 262 294 276 131 162 230 236 315 352 332 348 342 345 348 345 344 344 346 347 358 357 359 0 264 245 32 12 8 240 250 252 261 261 252 262 264 263 258 252 250 244 240 243 233
304 75 340 314 335 308 355 296 293 131 253 232 301 6 337 343 347 346 353 343 345 342 346 353 355 6 8 1 357 350 251 283 322 337 322 334 22 358 354 339 304 262 253 248 247 248 241 239 239
42 344 291 296 307 321 118 248 274 191 256 3 359 7 353 344 358 359 357 353 360 350 347 339 12 18 22 28 33 39 33 14 29 26 11 9 5 8 3 340 330 294 273 258 252 249 243 243 242
359 300 289 245 247 250 209 246 283 347 357 330 344 354 345 354 8 9 8 5 3 5 358 5 39 39 28 38 48 43 36 37 41 21 10 8 0 357 4 342 344 343 337 279 258 251 242 237 235
261 310 205 216 218 321 348 289 263 59 28 292 319 331 351 21 13 14 12 3 1 7 7 11 21 33 31 33 57 57 52 45 49 50 8 2 356 355 346 342 359 340 357 347 351 263 245 249 235
176 309 323 272 321 338 97 240 181 111 304 226 298 285 21 42 23 20 11 360 3 4 5 4 15 24 24 25 35 30 36 47 39 39 341 23 293 353 349 357 353 347 8 4 1 11 4 310 258
155 222 43 325 240 252 214 232 175 179 332 312 322 339 8 7 35 6 1 357 356 356 354 351 2 25 25 9 39 31 30 21 28 20 332 324 11 352 2 4 351 360 6 12 8 8 0 2 14
299 58 252 166 278 281 201 241 283 290 308 321 291 296 335 245 51 337 341 332 330 352 334 353 4 27 32 11 14 34 37 28 18 13 9 7 7 14 7 12 4 13 11 9 11 10 2 15 5
180 230 216 280 249 295 315 92 153 288 263 268 231 184 185 152 190 242 263 261 318 338 348 357 12 23 14 24 23 24 30 33 25 14 11 9 12 9 6 8 5 8 7 1 12 11 1 2 357
291 270 265 279 150 250 281 294 154 184 184 208 211 197 206 206 208 224 263 287 288 299 297 316 319 35 1 8 38 20 19 25 21 18 12 359 358 5 8 3 1 359 2 358 2 356 353 354 351